Change the Weather History Date:

Tuesday, April 16, 2013

  Actual Average (KLBF) Record (KLBF)
Temperature  
Mean Temperature 35 °F 48 °F  
Max Temperature 39 °F 62 °F 89 °F (1985)
Min Temperature 31 °F 33 °F 17 °F (1951)
Degree Days  
Heating Degree Days 30 17  
Month to date heating degree days 317  
Since 1 July heating degree days 6182  
Cooling Degree Days 0 0  
Month to date cooling degree days 0  
Year to date cooling degree days 0  
Moisture  
Dew Point 25 °F    
Average Humidity 70    
Maximum Humidity 89    
Minimum Humidity 53    
Precipitation  
Precipitation 0.00 in 0.08 in 0.88 in (1930)
Month to date precipitation 1.04  
Year to date precipitation 2.93  
Snow  
Snow 0.00 in 0.10 in 5.30 in (2013)
Month to date snowfall 2.2  
Since 1 July snowfall 27.5  
Snow Depth -    
Sea Level Pressure  
Sea Level Pressure 30.13 in    
Wind  
Wind Speed 6 mph (ENE)    
Max Wind Speed 16 mph    
Max Gust Speed 25 mph    
Visibility 9 miles    
Events Snow    
T = Trace of Precipitation, MM = Missing Value Source: NWS Daily Summary

Daily Weather History Graph

Daily Weather History Graph

Search for Another Location

Airport or City:

Trip Planner

Search our weather history database for the weather conditions in past years. The results will help you decide how hot, cold, wet, or windy it might be!

Date:

Astronomy

Apr. 16, 2013 Rise Set
Actual Time 6:59 AM CDT 8:24 PM CDT
Civil Twilight 6:30 AM CDT 8:53 PM CDT
Nautical Twilight 5:55 AM CDT 9:29 PM CDT
Astronomical Twilight 5:18 AM CDT 10:06 PM CDT
Moon 11:17 AM CDT (4/16) 1:25 AM CDT (4/16)
Length of Visible Light 14h 23m
Length of Day
13h 24m
Waxing Crescent, 33% of the Moon is Illuminated
Apr 16
Waxing Crescent
Apr 18
First Quarter
Apr 25
Full
May 2
Last Quarter
May 9
New

Hourly Weather History & Observations

Time (CDT) Temp. Windchill Dew Point Humidity Pressure Visibility Wind Dir Wind Speed Gust Speed Precip Events Conditions
12:15 AM 34.3 °F 31.4 °F 22.6 °F 62% 30.06 in 10.0 mi North 3.5 mph - N/A   Overcast
12:35 AM 34.2 °F 30.0 °F 23.0 °F 64% 30.09 in 10.0 mi NNW 4.6 mph - N/A   Overcast
12:55 AM 33.8 °F 30.8 °F 23.5 °F 66% 30.09 in 10.0 mi North 3.5 mph - N/A   Overcast
1:15 AM 33.8 °F - 23.5 °F 66% 30.10 in 10.0 mi Calm Calm - N/A   Overcast
1:35 AM 33.8 °F 30.8 °F 23.7 °F 67% 30.11 in 10.0 mi NNW 3.5 mph - N/A   Overcast
1:55 AM 33.4 °F - 23.9 °F 68% 30.10 in 10.0 mi Calm Calm - N/A   Overcast
2:15 AM 33.8 °F 30.8 °F 23.5 °F 66% 30.11 in 10.0 mi North 3.5 mph - N/A   Overcast
2:35 AM 33.8 °F - 23.5 °F 66% 30.11 in 10.0 mi Calm Calm - N/A   Overcast
2:55 AM 33.4 °F - 23.4 °F 67% 30.11 in 10.0 mi Calm Calm - N/A   Overcast
3:15 AM 33.4 °F - 23.0 °F 66% 30.11 in 10.0 mi Calm Calm - N/A   Overcast
3:35 AM 33.3 °F - 23.4 °F 67% 30.11 in 10.0 mi Calm Calm - N/A   Overcast
3:55 AM 32.4 °F - 24.3 °F 72% 30.11 in 10.0 mi Calm Calm - N/A   Overcast
4:15 AM 32.2 °F - 24.3 °F 73% 30.12 in 10.0 mi Calm Calm - N/A   Overcast
4:35 AM 32.0 °F - 24.6 °F 74% 30.13 in 10.0 mi Calm Calm - N/A   Overcast
4:55 AM 32.0 °F - 24.8 °F 75% 30.12 in 10.0 mi Calm Calm - N/A   Overcast
5:15 AM 32.0 °F - 25.2 °F 76% 30.12 in 10.0 mi Calm Calm - N/A   Overcast
5:35 AM 32.0 °F - 25.5 °F 77% 30.12 in 10.0 mi Calm Calm - N/A   Overcast
5:55 AM 32.0 °F - 25.2 °F 76% 30.12 in 10.0 mi Calm Calm - N/A   Overcast
6:15 AM 32.0 °F - 25.9 °F 78% 30.13 in 10.0 mi Calm Calm - N/A   Overcast
6:35 AM 32.0 °F - 25.7 °F 78% 30.13 in 10.0 mi Calm Calm - N/A   Overcast
7:15 AM 32.0 °F - 24.8 °F 75% 30.15 in 10.0 mi Calm Calm - N/A   Overcast
7:35 AM 32.0 °F 28.7 °F 24.8 °F 75% 30.15 in 10.0 mi NNE 3.5 mph - N/A   Overcast
7:55 AM 32.0 °F 27.5 °F 25.5 °F 77% 30.15 in 3.0 mi North 4.6 mph - N/A Snow Light Snow
8:15 AM 31.6 °F 27.0 °F 26.1 °F 80% 30.15 in 2.5 mi NNE 4.6 mph - N/A Snow Light Snow
8:35 AM 31.3 °F 25.6 °F 26.6 °F 83% 30.16 in 2.5 mi NNE 5.8 mph - N/A Snow Light Snow
8:55 AM 31.1 °F 24.5 °F 27.1 °F 85% 30.16 in 3.0 mi NE 6.9 mph - N/A Snow Light Snow
9:15 AM 31.1 °F 24.5 °F 27.3 °F 86% 30.16 in 5.0 mi NE 6.9 mph - N/A Snow Light Snow
9:35 AM 31.1 °F 25.4 °F 27.0 °F 85% 30.17 in 7.0 mi ENE 5.8 mph - N/A Snow Light Snow
9:55 AM 31.5 °F 24.9 °F 27.1 °F 84% 30.16 in 10.0 mi NE 6.9 mph - N/A   Overcast
10:15 AM 31.8 °F 23.9 °F 27.3 °F 83% 30.17 in 10.0 mi ENE 9.2 mph - N/A   Overcast
10:35 AM 32.0 °F 24.8 °F 27.5 °F 83% 30.17 in 10.0 mi ENE 8.1 mph - N/A   Overcast
10:55 AM 32.0 °F 24.8 °F 27.5 °F 83% 30.17 in 10.0 mi ENE 8.1 mph - N/A   Overcast
11:15 AM 32.0 °F 23.6 °F 27.9 °F 85% 30.17 in 10.0 mi ENE 10.4 mph - N/A   Overcast
11:35 AM 32.2 °F 23.8 °F 27.5 °F 83% 30.17 in 10.0 mi ENE 10.4 mph - N/A   Overcast
11:55 AM 32.5 °F 24.8 °F 27.9 °F 83% 30.19 in 10.0 mi East 9.2 mph - N/A   Overcast
12:15 PM 33.1 °F 25.5 °F 27.5 °F 80% 30.19 in 10.0 mi East 9.2 mph - N/A   Overcast
12:35 PM 33.4 °F 25.9 °F 27.7 °F 79% 30.19 in 10.0 mi East 9.2 mph - N/A   Overcast
12:55 PM 33.8 °F 26.4 °F 28.2 °F 80% 30.18 in 10.0 mi East 9.2 mph - N/A   Overcast
1:15 PM 34.5 °F 25.3 °F 27.9 °F 77% 30.17 in 10.0 mi ENE 13.8 mph 17.3 mph N/A   Overcast
1:35 PM 34.7 °F 25.5 °F 27.3 °F 74% 30.16 in 10.0 mi ENE 13.8 mph 17.3 mph N/A   Overcast
1:55 PM 34.7 °F 26.4 °F 26.8 °F 73% 30.15 in 10.0 mi East 11.5 mph - N/A   Overcast
2:15 PM 35.6 °F 27.5 °F 27.0 °F 71% 30.14 in 10.0 mi East 11.5 mph - N/A   Overcast
2:35 PM 36.1 °F 26.9 °F 26.6 °F 68% 30.13 in 10.0 mi ENE 15.0 mph 19.6 mph N/A   Overcast
2:55 PM 36.7 °F 28.9 °F 26.1 °F 65% 30.13 in 10.0 mi East 11.5 mph 19.6 mph N/A   Overcast
3:15 PM 37.2 °F 28.3 °F 25.7 °F 63% 30.13 in 10.0 mi East 15.0 mph 21.9 mph N/A   Overcast
3:35 PM 37.6 °F 29.1 °F 25.7 °F 62% 30.12 in 10.0 mi East 13.8 mph - N/A   Overcast
3:55 PM 37.6 °F 29.6 °F 25.2 °F 61% 30.11 in 10.0 mi ENE 12.7 mph - N/A   Overcast
4:15 PM 38.3 °F 29.7 °F 25.2 °F 59% 30.11 in 10.0 mi ENE 15.0 mph - N/A   Overcast
4:35 PM 38.3 °F 30.9 °F 24.6 °F 58% 30.10 in 10.0 mi ENE 11.5 mph 17.3 mph N/A   Overcast
4:55 PM 39.2 °F 32.0 °F 24.4 °F 56% 30.10 in 10.0 mi East 11.5 mph 18.4 mph N/A   Overcast
5:15 PM 39.2 °F 31.6 °F 24.1 °F 55% 30.09 in 10.0 mi ENE 12.7 mph 18.4 mph N/A   Overcast
5:35 PM 39.2 °F 30.5 °F 24.1 °F 55% 30.09 in 10.0 mi ENE 16.1 mph 21.9 mph N/A   Overcast
5:55 PM 39.2 °F 30.8 °F 23.9 °F 54% 30.08 in 10.0 mi ENE 15.0 mph 21.9 mph N/A   Overcast
6:15 PM 39.4 °F 30.7 °F 23.4 °F 53% 30.08 in 10.0 mi ENE 16.1 mph 23.0 mph N/A   Overcast
6:35 PM 38.8 °F 30.4 °F 23.0 °F 53% 30.09 in 10.0 mi ENE 15.0 mph 25.3 mph N/A   Overcast
6:55 PM 38.5 °F 29.6 °F 22.6 °F 53% 30.10 in 10.0 mi East 16.1 mph 21.9 mph N/A   Overcast
7:15 PM 38.3 °F 29.3 °F 23.0 °F 54% 30.10 in 10.0 mi East 16.1 mph 20.7 mph N/A   Overcast
7:35 PM 38.3 °F 30.5 °F 23.2 °F 55% 30.11 in 10.0 mi ENE 12.7 mph - N/A   Overcast
7:55 PM 38.3 °F 30.9 °F 23.9 °F 56% 30.11 in 10.0 mi ENE 11.5 mph 18.4 mph N/A   Overcast
8:15 PM 37.9 °F 30.9 °F 24.3 °F 58% 30.12 in 10.0 mi ENE 10.4 mph - N/A   Overcast
8:35 PM 37.4 °F 29.3 °F 24.4 °F 60% 30.13 in 10.0 mi ENE 12.7 mph 17.3 mph N/A   Overcast
8:55 PM 37.0 °F 29.3 °F 24.3 °F 60% 30.13 in 10.0 mi ENE 11.5 mph 20.7 mph N/A   Overcast
9:15 PM 36.5 °F 28.2 °F 24.6 °F 62% 30.13 in 10.0 mi ENE 12.7 mph 18.4 mph N/A   Overcast
9:35 PM 35.6 °F 25.9 °F 25.0 °F 65% 30.14 in 10.0 mi ENE 16.1 mph 20.7 mph N/A   Overcast
9:55 PM 35.1 °F 25.5 °F 25.3 °F 68% 30.14 in 10.0 mi NE 15.0 mph 19.6 mph N/A   Overcast
10:15 PM 34.7 °F 25.5 °F 25.5 °F 69% 30.16 in 10.0 mi ENE 13.8 mph 20.7 mph N/A   Overcast
10:35 PM 34.0 °F 25.5 °F 26.1 °F 73% 30.16 in 10.0 mi ENE 11.5 mph - N/A   Overcast
10:55 PM 33.4 °F 24.8 °F 26.4 °F 75% 30.17 in 10.0 mi NE 11.5 mph - N/A   Overcast
11:15 PM 32.7 °F 23.9 °F 27.9 °F 82% 30.16 in 7.0 mi ENE 11.5 mph - N/A   Overcast
11:35 PM 32.2 °F 24.4 °F 28.4 °F 86% 30.16 in 7.0 mi NE 9.2 mph - N/A   Overcast
11:55 PM 32.0 °F 24.2 °F 29.1 °F 89% 30.16 in 7.0 mi NE 9.2 mph - N/A   Overcast